Weather History for KCMR - June, 2013

Change the Weather History Date:

Thursday, June 20, 2013

  Actual Average (KFLG) Record (KFLG)
Temperature  
Mean Temperature 64 °F 61 °F  
Max Temperature 80 °F 79 °F 92 °F (1936)
Min Temperature 48 °F 43 °F 30 °F (1979)
Degree Days  
Heating Degree Days 1 4  
Month to date heating degree days 139  
Since 1 July heating degree days 6912  
Cooling Degree Days 0 1  
Month to date cooling degree days 3  
Year to date cooling degree days 3  
Growing Degree Days 14 (Base 50)    
Moisture  
Dew Point 18 °F    
Average Humidity 17    
Maximum Humidity 30    
Minimum Humidity 8    
Precipitation  
Precipitation 0.00 in 0.01 in 0.32 in (1925)
Month to date precipitation 0.20  
Year to date precipitation 8.31  
Snow  
Snow 0.00 in 0.00 in 0.00 in (2002)
Month to date snowfall 0.1  
Since 1 July snowfall 101.8  
Snow Depth -    
Sea Level Pressure  
Sea Level Pressure 30.15 in    
Wind  
Wind Speed 11 mph (South)    
Max Wind Speed 22 mph    
Max Gust Speed 34 mph    
Visibility 10 miles    
Events      
T = Trace of Precipitation, MM = Missing Value Source: NWS Daily Summary

Daily Weather History Graph

Daily Weather History Graph

Search for Another Location

Airport or City:

Trip Planner

Search our weather history database for the weather conditions in past years. The results will help you decide how hot, cold, wet, or windy it might be!

Date:

Astronomy

Jun. 20, 2013 Rise Set
Actual Time 5:14 AM MST 7:46 PM MST
Civil Twilight 4:44 AM MST 8:16 PM MST
Nautical Twilight 4:07 AM MST 8:53 PM MST
Astronomical Twilight 3:26 AM MST 9:34 PM MST
Moon 4:56 PM MST (6/20) 2:38 AM MST (6/20)
Length of Visible Light 15h 32m
Length of Day
14h 32m
Waxing Gibbous, 89% of the Moon is Illuminated
Jun 20
Waxing Gibbous
Jun 23
Full
Jun 29
Last Quarter
Jul 8
New
Jul 15
First Quarter

Hourly Weather History & Observations

Time (MST) Temp. Dew Point Humidity Pressure Visibility Wind Dir Wind Speed Gust Speed Precip Events Conditions
12:15 AM 51.8 °F 17.6 °F 26% 30.13 in 10.0 mi SSE 8.1 mph - N/A   Clear
12:35 AM 53.6 °F 17.6 °F 24% 30.13 in 10.0 mi SSE 5.8 mph - N/A   Clear
12:55 AM 50.0 °F 17.6 °F 28% 30.13 in 10.0 mi SE 5.8 mph - N/A   Clear
1:15 AM 51.8 °F 17.6 °F 26% 30.12 in 10.0 mi SSE 8.1 mph - N/A   Clear
1:35 AM 53.6 °F 17.6 °F 24% 30.12 in 10.0 mi SSE 8.1 mph - N/A   Clear
1:55 AM 53.6 °F 17.6 °F 24% 30.12 in 10.0 mi SE 8.1 mph - N/A   Clear
2:15 AM 55.4 °F 17.6 °F 23% 30.12 in 10.0 mi SE 8.1 mph - N/A   Clear
2:35 AM 51.8 °F 17.6 °F 26% 30.12 in 10.0 mi SSE 5.8 mph - N/A   Clear
2:55 AM 53.6 °F 17.6 °F 24% 30.12 in 10.0 mi SE 8.1 mph - N/A   Clear
3:15 AM 51.8 °F 17.6 °F 26% 30.11 in 10.0 mi SSE 8.1 mph - N/A   Clear
3:35 AM - - N/A% 30.11 in 10.0 mi SSE 6.9 mph - N/A   Unknown
3:55 AM 53.6 °F 17.6 °F 24% 30.12 in 10.0 mi SSE 4.6 mph - N/A   Clear
4:15 AM 50.0 °F 17.6 °F 28% 30.12 in 10.0 mi SSE 6.9 mph - N/A   Clear
4:35 AM 50.0 °F 17.6 °F 28% 30.12 in 10.0 mi SSE 8.1 mph - N/A   Clear
4:55 AM 48.2 °F 17.6 °F 30% 30.12 in 10.0 mi SSE 8.1 mph - N/A   Clear
5:15 AM 50.0 °F 17.6 °F 28% 30.13 in 10.0 mi SSE 8.1 mph - N/A   Clear
5:35 AM 50.0 °F 17.6 °F 28% 30.13 in 10.0 mi SSE 8.1 mph - N/A   Clear
5:55 AM 51.8 °F 19.4 °F 28% 30.14 in 10.0 mi SSE 8.1 mph - N/A   Clear
6:15 AM 53.6 °F 19.4 °F 26% 30.14 in 10.0 mi SSE 8.1 mph - N/A   Clear
6:35 AM 59.0 °F 19.4 °F 22% 30.14 in 10.0 mi SSE 6.9 mph - N/A   Clear
6:55 AM 62.6 °F 19.4 °F 19% 30.15 in 10.0 mi SSE 5.8 mph - N/A   Clear
7:15 AM 64.4 °F 17.6 °F 16% 30.16 in 10.0 mi South 10.4 mph - N/A   Clear
7:35 AM 66.2 °F 19.4 °F 17% 30.16 in 10.0 mi South 12.7 mph - N/A   Clear
7:55 AM 68.0 °F 15.8 °F 13% 30.16 in 10.0 mi South 12.7 mph 19.6 mph N/A   Clear
8:15 AM 68.0 °F 15.8 °F 13% 30.16 in 10.0 mi South 16.1 mph 21.9 mph N/A   Clear
8:35 AM 69.8 °F 15.8 °F 13% 30.16 in 10.0 mi South 12.7 mph 19.6 mph N/A   Clear
8:55 AM 69.8 °F 15.8 °F 13% 30.16 in 10.0 mi South 19.6 mph 23.0 mph N/A   Clear
9:15 AM 71.6 °F 15.8 °F 12% 30.16 in 10.0 mi South 12.7 mph 24.2 mph N/A   Clear
9:35 AM 71.6 °F 15.8 °F 12% 30.16 in 10.0 mi South 13.8 mph 21.9 mph N/A   Clear
9:55 AM 71.6 °F 14.0 °F 11% 30.16 in 10.0 mi South 19.6 mph 27.6 mph N/A   Clear
10:15 AM 73.4 °F 14.0 °F 10% 30.17 in 10.0 mi South 20.7 mph 27.6 mph N/A   Clear
10:35 AM 73.4 °F 15.8 °F 11% 30.17 in 10.0 mi South 19.6 mph 27.6 mph N/A   Clear
10:55 AM 75.2 °F 15.8 °F 11% 30.17 in 10.0 mi South 21.9 mph 27.6 mph N/A   Clear
11:15 AM 75.2 °F 17.6 °F 11% 30.17 in 10.0 mi South 19.6 mph 28.8 mph N/A   Clear
11:35 AM 75.2 °F 15.8 °F 11% 30.17 in 10.0 mi SSW 13.8 mph 24.2 mph N/A   Clear
11:55 AM 77.0 °F 15.8 °F 10% 30.17 in 10.0 mi South 18.4 mph 26.5 mph N/A   Clear
12:15 PM 77.0 °F 15.8 °F 10% 30.16 in 10.0 mi South 12.7 mph 21.9 mph N/A   Clear
12:35 PM 78.8 °F 14.0 °F 9% 30.16 in 10.0 mi SSW 18.4 mph 27.6 mph N/A   Clear
12:55 PM 78.8 °F 14.0 °F 9% 30.16 in 10.0 mi South 21.9 mph 34.5 mph N/A   Clear
1:15 PM 78.8 °F 14.0 °F 9% 30.16 in 10.0 mi South 13.8 mph 29.9 mph N/A   Clear
1:35 PM 78.8 °F 15.8 °F 9% 30.15 in 10.0 mi SW 18.4 mph 26.5 mph N/A   Clear
1:55 PM 80.6 °F 14.0 °F 8% 30.15 in 10.0 mi SW 17.3 mph 32.2 mph N/A   Clear
2:15 PM 78.8 °F 14.0 °F 9% 30.16 in 10.0 mi South 16.1 mph 28.8 mph N/A   Clear
2:35 PM 78.8 °F 14.0 °F 9% 30.15 in 10.0 mi South 21.9 mph 29.9 mph N/A   Clear
2:55 PM 80.6 °F 14.0 °F 8% 30.15 in 10.0 mi SSW 19.6 mph 26.5 mph N/A   Clear
3:15 PM 80.6 °F 14.0 °F 8% 30.15 in 10.0 mi SSW 20.7 mph 31.1 mph N/A   Clear
3:35 PM 80.6 °F 17.6 °F 10% 30.15 in 10.0 mi SSW 18.4 mph 31.1 mph N/A   Clear
3:55 PM 80.6 °F 15.8 °F 9% 30.15 in 10.0 mi South 17.3 mph 31.1 mph N/A   Clear
4:15 PM 78.8 °F 15.8 °F 9% 30.14 in 10.0 mi SSW 20.7 mph 31.1 mph N/A   Clear
4:35 PM 77.0 °F 15.8 °F 10% 30.15 in 10.0 mi South 15.0 mph 28.8 mph N/A   Clear
4:55 PM 77.0 °F 15.8 °F 10% 30.15 in 10.0 mi South 19.6 mph 31.1 mph N/A   Clear
5:15 PM 77.0 °F 17.6 °F 11% 30.14 in 10.0 mi SSW 12.7 mph 23.0 mph N/A   Clear
5:35 PM 77.0 °F 15.8 °F 10% 30.14 in 10.0 mi SSW 20.7 mph 29.9 mph N/A   Clear
5:55 PM 75.2 °F 17.6 °F 11% 30.14 in 10.0 mi South 18.4 mph 27.6 mph N/A   Clear
6:15 PM 75.2 °F 17.6 °F 11% 30.14 in 10.0 mi SSW 20.7 mph 28.8 mph N/A   Clear
6:35 PM 75.2 °F 15.8 °F 11% 30.15 in 10.0 mi SSW 10.4 mph 23.0 mph N/A   Clear
6:55 PM 73.4 °F 15.8 °F 11% 30.15 in 10.0 mi South 16.1 mph 24.2 mph N/A   Clear
7:15 PM 71.6 °F 15.8 °F 12% 30.15 in 10.0 mi SSW 16.1 mph 23.0 mph N/A   Clear
7:35 PM 71.6 °F 17.6 °F 13% 30.15 in 10.0 mi SSW 10.4 mph 19.6 mph N/A   Clear
7:55 PM 69.8 °F 19.4 °F 15% 30.16 in 10.0 mi SSW 12.7 mph 17.3 mph N/A   Clear
8:15 PM 68.0 °F 21.2 °F 17% 30.16 in 10.0 mi South 9.2 mph - N/A   Clear
8:35 PM 68.0 °F 23.0 °F 18% 30.17 in 10.0 mi South 9.2 mph - N/A   Clear
8:55 PM 64.4 °F 23.0 °F 21% 30.17 in 10.0 mi South 4.6 mph - N/A   Clear
9:15 PM 64.4 °F 23.0 °F 21% 30.18 in 10.0 mi South 8.1 mph - N/A   Clear
9:35 PM 64.4 °F 23.0 °F 21% 30.18 in 10.0 mi South 9.2 mph - N/A   Clear
9:55 PM 62.6 °F 23.0 °F 22% 30.19 in 10.0 mi South 8.1 mph - N/A   Clear
10:15 PM 62.6 °F 23.0 °F 22% 30.19 in 10.0 mi South 6.9 mph - N/A   Clear
10:35 PM 62.6 °F 23.0 °F 22% 30.19 in 10.0 mi South 5.8 mph - N/A   Clear
10:55 PM 59.0 °F 23.0 °F 25% 30.19 in 10.0 mi South 6.9 mph - N/A   Clear
11:15 PM 57.2 °F 23.0 °F 27% 30.19 in 10.0 mi South 5.8 mph - N/A   Clear
11:35 PM 59.0 °F 23.0 °F 25% 30.19 in 10.0 mi South 6.9 mph - N/A   Clear
11:55 PM 59.0 °F 23.0 °F 25% 30.19 in 10.0 mi South 6.9 mph - N/A   Clear